Change the Weather History Date:

Tuesday, August 13, 2013

  Actual Average Record
Temperature  
Mean Temperature 68 °F 72 °F  
Max Temperature 80 °F 83 °F 94 °F (2005)
Min Temperature 56 °F 61 °F 46 °F (1964)
Degree Days  
Heating Degree Days 0 0  
Month to date heating degree days 1 0  
Since 1 June heating degree days 19 35  
Since 1 July heating degree days 1 3  
Cooling Degree Days 3 7  
Month to date cooling degree days 78 101  
Year to date cooling degree days 617 562  
Since 1 June cooling degree days 509 508  
Growing Degree Days 18 (Base 50)    
Moisture  
Dew Point 63 °F    
Average Humidity 76    
Maximum Humidity 97    
Minimum Humidity 54    
Precipitation  
Precipitation 0.03 in 0.10 in 0.62 in (1975)
Month to date precipitation 2.99 1.33  
Year to date precipitation 26.26 24.62  
Sea Level Pressure  
Sea Level Pressure 29.88 in    
Wind  
Wind Speed 7 mph (WNW)    
Max Wind Speed 16 mph    
Max Gust Speed 23 mph    
Visibility 6 miles    
Events Rain    
T = Trace of Precipitation, MM = Missing Value Source: NWS Daily Summary

Daily Weather History Graph

Daily Weather History Graph

Search for Another Location

Airport or City:

Trip Planner

Search our weather history database for the weather conditions in past years. The results will help you decide how hot, cold, wet, or windy it might be!

Date:

Astronomy

Aug. 13, 2013 Rise Set
Actual Time 6:37 AM EDT 8:26 PM EDT
Civil Twilight 6:08 AM EDT 8:55 PM EDT
Nautical Twilight 5:33 AM EDT 9:30 PM EDT
Astronomical Twilight 4:55 AM EDT 10:08 PM EDT
Moon 1:30 PM EDT (8/13) No Moon Set
Length of Visible Light 14h 47m
Length of Day
13h 48m
Waxing Crescent, 41% of the Moon is Illuminated
Aug 13
Waxing Crescent
Aug 14
First Quarter
Aug 20
Full
Aug 28
Last Quarter
Sep 5
New

Hourly Weather History & Observations

Time (EDT) Temp. Dew Point Humidity Pressure Visibility Wind Dir Wind Speed Gust Speed Precip Events Conditions
12:12 AM 73.4 °F 69.8 °F 88% 29.90 in 4.0 mi Calm Calm - 0.00 in Rain Light Rain
12:53 AM 72.0 °F 69.1 °F 91% 29.83 in 5.0 mi Calm Calm - 0.01 in   Scattered Clouds
1:53 AM 72.0 °F 69.1 °F 91% 29.83 in 4.0 mi SSW 3.5 mph - N/A   Overcast
2:53 AM 71.1 °F 68.0 °F 90% 29.82 in 5.0 mi SSW 4.6 mph - 0.02 in   Overcast
3:53 AM 70.0 °F 68.0 °F 93% 29.82 in 4.0 mi South 3.5 mph - N/A   Overcast
4:34 AM 69.8 °F 68.0 °F 94% 29.84 in 3.0 mi SSW 3.5 mph - N/A   Scattered Clouds
4:42 AM 69.8 °F 66.2 °F 88% 29.84 in 2.5 mi SSW 3.5 mph - N/A   Partly Cloudy
4:53 AM 70.0 °F 66.9 °F 90% 29.82 in 2.5 mi SSW 3.5 mph - N/A   Scattered Clouds
5:07 AM 69.8 °F 66.2 °F 88% 29.84 in 2.5 mi Calm Calm - N/A   Mostly Cloudy
5:35 AM 69.8 °F 66.2 °F 88% 29.84 in 1.2 mi Calm Calm - N/A   Mostly Cloudy
5:42 AM 69.8 °F 66.2 °F 88% 29.84 in 1.0 mi Calm Calm - N/A   Mostly Cloudy
5:47 AM 69.8 °F 66.2 °F 88% 29.84 in 1.5 mi Calm Calm - N/A   Scattered Clouds
5:53 AM 69.1 °F 66.9 °F 93% 29.82 in 2.0 mi Calm Calm - N/A   Scattered Clouds
6:44 AM 69.8 °F 66.2 °F 88% 29.85 in 1.2 mi SSW 3.5 mph - 0.01 in   Clear
6:53 AM 69.1 °F 66.9 °F 93% 29.83 in 1.2 mi SSW 3.5 mph - 0.01 in   Clear
7:37 AM 69.8 °F 66.2 °F 88% 29.86 in 1.8 mi West 3.5 mph - N/A   Clear
7:53 AM 70.0 °F 66.0 °F 87% 29.84 in 3.0 mi West 4.6 mph - N/A   Clear
8:15 AM 69.8 °F 66.2 °F 88% 29.86 in 4.0 mi NW 4.6 mph - N/A   Mostly Cloudy
8:53 AM 70.0 °F 64.9 °F 84% 29.86 in 5.0 mi NW 4.6 mph - N/A   Haze
9:07 AM 71.6 °F 66.2 °F 83% 29.88 in 5.0 mi WNW 4.6 mph - N/A   Haze
9:53 AM 71.1 °F 66.0 °F 84% 29.87 in 7.0 mi NW 6.9 mph - N/A   Overcast
10:24 AM 73.4 °F 64.4 °F 73% 29.89 in 9.0 mi NNW 6.9 mph - N/A   Mostly Cloudy
10:51 AM 71.6 °F 64.4 °F 78% 29.91 in 10.0 mi NW 9.2 mph - N/A   Mostly Cloudy
10:53 AM 71.1 °F 64.0 °F 78% 29.89 in 10.0 mi NW 9.2 mph - N/A   Mostly Cloudy
11:01 AM 73.4 °F 64.4 °F 73% 29.91 in 10.0 mi NNW 5.8 mph - N/A   Mostly Cloudy
11:53 AM 75.0 °F 61.0 °F 62% 29.89 in 10.0 mi North 8.1 mph - N/A   Scattered Clouds
12:53 PM 77.0 °F 61.0 °F 58% 29.89 in 10.0 mi NW 5.8 mph - N/A   Scattered Clouds
1:53 PM 78.1 °F 62.1 °F 58% 29.88 in 10.0 mi WNW 8.1 mph - N/A   Scattered Clouds
2:53 PM 79.0 °F 61.0 °F 54% 29.88 in 10.0 mi NNW 10.4 mph - N/A   Partly Cloudy
3:53 PM 77.0 °F 60.1 °F 56% 29.88 in 10.0 mi NW 12.7 mph 19.6 mph N/A   Scattered Clouds
4:53 PM 75.0 °F 60.1 °F 60% 29.88 in 10.0 mi NW 11.5 mph - N/A   Scattered Clouds
5:53 PM 73.0 °F 57.0 °F 57% 29.89 in 10.0 mi NW 16.1 mph - N/A   Partly Cloudy
6:53 PM 71.1 °F 57.0 °F 61% 29.91 in 10.0 mi NW 9.2 mph - N/A   Partly Cloudy
7:53 PM 68.0 °F 55.0 °F 63% 29.94 in 10.0 mi North 9.2 mph - N/A   Partly Cloudy
8:53 PM 64.9 °F 48.9 °F 56% 29.97 in 10.0 mi NNW 9.2 mph - N/A   Clear
9:53 PM 61.0 °F 48.9 °F 64% 29.99 in 10.0 mi NNW 5.8 mph - N/A   Clear
10:53 PM 57.9 °F 48.9 °F 72% 30.01 in 10.0 mi North 4.6 mph - N/A   Clear
11:53 PM 55.9 °F 48.9 °F 77% 30.01 in 10.0 mi NW 3.5 mph - N/A   Clear